• In Österreich
  • Länderverzeichnis
  • Für 7 Tage
  • Wassertemperatur
  • Satellitenkarten
  • Wetterkarte
  • News
  • Widgets
  • user-avatar
    Anmelden

    Stündliche Wetter Salta

    Heute, 21 Februar, Mittwoch

    Zeit Temperatur Niederschläge Wind Luftdruck Luftfeuchtigkeit
    00:00 +20°C° 1,7 mm 1 m/S 652 mmHg 88%
    01:00 +20°C° 1,7 mm 1 m/S 652 mmHg 87%
    02:00 +19°C° 1,7 mm 1 m/S 652 mmHg 87%
    03:00 +19°C° 1,3 mm 1 m/S 652 mmHg 87%
    04:00 +19°C° 1,3 mm 1 m/S 652 mmHg 87%
    05:00 +19°C° 1,3 mm 1 m/S 652 mmHg 88%
    06:00 +19°C° 0,8 mm 1 m/S 653 mmHg 87%
    07:00 +20°C° 0,8 mm 1 m/S 654 mmHg 85%
    08:00 +20°C° 0,8 mm 1 m/S 654 mmHg 84%
    09:00 +21°C° 0,3 mm 1 m/S 655 mmHg 81%
    10:00 +21°C° 0,3 mm 2 m/S 655 mmHg 78%
    11:00 +21°C° 0,3 mm 2 m/S 655 mmHg 75%
    12:00 +24°C° 0,1 mm 2 m/S 654 mmHg 67%
    13:00 +26°C° 0,1 mm 2 m/S 654 mmHg 60%
    14:00 +28°C° 0,1 mm 3 m/S 654 mmHg 53%
    15:00 +27°C° 0,1 mm 3 m/S 653 mmHg 56%
    16:00 +26°C° 0,1 mm 3 m/S 652 mmHg 60%
    17:00 +25°C° 0,1 mm 2 m/S 651 mmHg 64%
    18:00 +24°C° 0,2 mm 2 m/S 651 mmHg 70%
    19:00 +23°C° 0,2 mm 1 m/S 651 mmHg 76%
    20:00 +21°C° 0,2 mm 1 m/S 652 mmHg 83%
    21:00 +21°C° 0,1 mm 1 m/S 652 mmHg 83%
    22:00 +21°C° 0,1 mm 1 m/S 653 mmHg 83%
    23:00 +20°C° 0,1 mm 1 m/S 653 mmHg 84%

    Morgen, 22 Februar, Donnerstag

    Zeit Temperatur Niederschläge Wind Luftdruck Luftfeuchtigkeit
    00:00 +20°C° 0,1 mm 1 m/S 653 mmHg 84%
    01:00 +20°C° 0,1 mm 1 m/S 653 mmHg 84%
    02:00 +20°C° 0,1 mm 1 m/S 652 mmHg 84%
    03:00 +19°C° 0 mm 1 m/S 652 mmHg 84%
    04:00 +19°C° 0 mm 1 m/S 652 mmHg 84%
    05:00 +19°C° 0 mm 1 m/S 652 mmHg 84%
    06:00 +20°C° 0 mm 1 m/S 653 mmHg 81%
    07:00 +21°C° 0 mm 1 m/S 653 mmHg 78%
    08:00 +22°C° 0 mm 1 m/S 654 mmHg 74%
    09:00 +23°C° 0,1 mm 2 m/S 654 mmHg 70%
    10:00 +24°C° 0,1 mm 2 m/S 655 mmHg 65%
    11:00 +25°C° 0,1 mm 3 m/S 655 mmHg 61%
    12:00 +26°C° 0,5 mm 3 m/S 654 mmHg 61%
    13:00 +26°C° 0,5 mm 3 m/S 653 mmHg 60%
    14:00 +26°C° 0,5 mm 2 m/S 653 mmHg 60%
    15:00 +26°C° 0,7 mm 2 m/S 652 mmHg 62%
    16:00 +25°C° 0,7 mm 2 m/S 651 mmHg 63%
    17:00 +25°C° 0,7 mm 2 m/S 651 mmHg 65%
    18:00 +24°C° 0,9 mm 1 m/S 651 mmHg 70%
    19:00 +22°C° 0,9 mm 1 m/S 651 mmHg 74%
    20:00 +21°C° 0,9 mm 1 m/S 651 mmHg 79%
    21:00 +21°C° 0,9 mm 1 m/S 652 mmHg 79%
    22:00 +20°C° 0,9 mm 1 m/S 652 mmHg 80%
    23:00 +20°C° 0,9 mm 1 m/S 652 mmHg 80%

    übermorgen, 23 Februar, Freitag

    Zeit Temperatur Niederschläge Wind Luftdruck Luftfeuchtigkeit
    00:00 +20°C° 0,1 mm 1 m/S 652 mmHg 80%
    01:00 +20°C° 0,1 mm 1 m/S 652 mmHg 79%
    02:00 +20°C° 0,1 mm 1 m/S 651 mmHg 79%
    03:00 +19°C° 0 mm 1 m/S 651 mmHg 79%
    04:00 +19°C° 0 mm 1 m/S 651 mmHg 79%
    05:00 +19°C° 0 mm 1 m/S 651 mmHg 80%
    06:00 +20°C° 0 mm 1 m/S 651 mmHg 76%
    07:00 +21°C° 0 mm 1 m/S 652 mmHg 72%
    08:00 +22°C° 0 mm 1 m/S 652 mmHg 68%
    09:00 +24°C° 0 mm 1 m/S 653 mmHg 62%
    10:00 +25°C° 0 mm 2 m/S 653 mmHg 56%
    11:00 +27°C° 0 mm 2 m/S 653 mmHg 50%
    12:00 +27°C° 0,1 mm 3 m/S 653 mmHg 49%
    13:00 +28°C° 0,1 mm 3 m/S 652 mmHg 49%
    14:00 +28°C° 0,1 mm 3 m/S 652 mmHg 48%
    15:00 +28°C° 0,2 mm 3 m/S 651 mmHg 51%
    16:00 +27°C° 0,2 mm 3 m/S 651 mmHg 53%
    17:00 +26°C° 0,2 mm 3 m/S 650 mmHg 56%
    18:00 +25°C° 0,2 mm 2 m/S 650 mmHg 62%
    19:00 +23°C° 0,2 mm 2 m/S 650 mmHg 68%
    20:00 +21°C° 0,2 mm 1 m/S 650 mmHg 74%
    21:00 +21°C° 0,7 mm 1 m/S 651 mmHg 75%
    22:00 +20°C° 0,7 mm 1 m/S 651 mmHg 77%
    23:00 +20°C° 0,7 mm 1 m/S 652 mmHg 78%

    24 Februar, Samstag

    Zeit Temperatur Niederschläge Wind Luftdruck Luftfeuchtigkeit
    00:00 +20°C° 0,8 mm 1 m/S 651 mmHg 79%
    01:00 +19°C° 0,8 mm 1 m/S 651 mmHg 79%
    02:00 +19°C° 0,8 mm 1 m/S 651 mmHg 79%
    03:00 +19°C° 0,8 mm 1 m/S 651 mmHg 79%
    04:00 +19°C° 0,8 mm 1 m/S 651 mmHg 78%
    05:00 +19°C° 0,8 mm 1 m/S 651 mmHg 77%
    06:00 +20°C° 0,5 mm 1 m/S 651 mmHg 75%
    07:00 +20°C° 0,5 mm 1 m/S 652 mmHg 73%
    08:00 +21°C° 0,5 mm 1 m/S 652 mmHg 71%
    09:00 +22°C° 0,4 mm 1 m/S 653 mmHg 67%
    10:00 +23°C° 0,4 mm 1 m/S 653 mmHg 62%
    11:00 +25°C° 0,4 mm 2 m/S 653 mmHg 58%
    12:00 +26°C° 0,1 mm 2 m/S 653 mmHg 55%
    13:00 +27°C° 0,1 mm 2 m/S 652 mmHg 52%
    14:00 +28°C° 0,1 mm 3 m/S 652 mmHg 49%
    15:00 +27°C° 0,2 mm 2 m/S 651 mmHg 52%
    16:00 +26°C° 0,2 mm 2 m/S 651 mmHg 56%
    17:00 +26°C° 0,2 mm 2 m/S 650 mmHg 59%
    18:00 +24°C° 0,2 mm 2 m/S 650 mmHg 64%
    19:00 +23°C° 0,2 mm 1 m/S 651 mmHg 69%
    20:00 +22°C° 0,2 mm 1 m/S 651 mmHg 73%
    21:00 +21°C° 0,5 mm 1 m/S 651 mmHg 75%
    22:00 +21°C° 0,5 mm 1 m/S 652 mmHg 76%
    23:00 +20°C° 0,5 mm 1 m/S 652 mmHg 77%

    25 Februar, Sonntag

    Zeit Temperatur Niederschläge Wind Luftdruck Luftfeuchtigkeit
    00:00 +20°C° 0,2 mm 1 m/S 652 mmHg 77%
    01:00 +20°C° 0,2 mm 1 m/S 651 mmHg 77%
    02:00 +20°C° 0,2 mm 1 m/S 651 mmHg 76%
    03:00 +20°C° 0,1 mm 1 m/S 651 mmHg 75%
    04:00 +19°C° 0,1 mm 1 m/S 651 mmHg 74%
    05:00 +19°C° 0,1 mm 1 m/S 651 mmHg 73%
    06:00 +20°C° 0 mm 1 m/S 652 mmHg 69%
    07:00 +21°C° 0 mm 1 m/S 652 mmHg 65%
    08:00 +23°C° 0 mm 1 m/S 653 mmHg 61%
    09:00 +24°C° 0 mm 1 m/S 653 mmHg 56%
    10:00 +26°C° 0 mm 2 m/S 653 mmHg 51%
    11:00 +28°C° 0 mm 2 m/S 654 mmHg 46%
    12:00 +28°C° 0,1 mm 3 m/S 653 mmHg 47%
    13:00 +28°C° 0,1 mm 3 m/S 652 mmHg 48%
    14:00 +28°C° 0,1 mm 3 m/S 652 mmHg 49%
    15:00 +27°C° 0,3 mm 3 m/S 651 mmHg 53%
    16:00 +26°C° 0,3 mm 3 m/S 651 mmHg 57%
    17:00 +25°C° 0,3 mm 3 m/S 650 mmHg 61%
    18:00 +24°C° 0,1 mm 2 m/S 650 mmHg 66%
    19:00 +21°C° 0,1 mm 2 m/S 650 mmHg 70%
    20:00 +21°C° 0,1 mm 1 m/S 651 mmHg 75%
    21:00 +20°C° 0,2 mm 1 m/S 651 mmHg 75%
    22:00 +20°C° 0,2 mm 1 m/S 651 mmHg 74%
    23:00 +20°C° 0,2 mm 1 m/S 652 mmHg 74%

    26 Februar, Montag

    Zeit Temperatur Niederschläge Wind Luftdruck Luftfeuchtigkeit
    00:00 +20°C° 0,1 mm 1 m/S 651 mmHg 74%
    01:00 +20°C° 0,1 mm 1 m/S 651 mmHg 74%
    02:00 +19°C° 0,1 mm 1 m/S 651 mmHg 74%
    03:00 +19°C° 0 mm 1 m/S 651 mmHg 74%
    04:00 +19°C° 0 mm 1 m/S 650 mmHg 74%
    05:00 +19°C° 0 mm 1 m/S 650 mmHg 75%
    06:00 +20°C° 0 mm 1 m/S 651 mmHg 71%
    07:00 +21°C° 0 mm 1 m/S 652 mmHg 66%
    08:00 +23°C° 0 mm 1 m/S 653 mmHg 62%
    09:00 +24°C° 0 mm 1 m/S 653 mmHg 58%
    10:00 +26°C° 0 mm 2 m/S 653 mmHg 54%
    11:00 +27°C° 0 mm 3 m/S 653 mmHg 50%
    12:00 +28°C° 0,2 mm 3 m/S 653 mmHg 50%
    13:00 +28°C° 0,2 mm 3 m/S 652 mmHg 49%
    14:00 +28°C° 0,2 mm 3 m/S 651 mmHg 49%
    15:00 +28°C° 0,6 mm 3 m/S 651 mmHg 52%
    16:00 +27°C° 0,6 mm 3 m/S 650 mmHg 54%
    17:00 +27°C° 0,6 mm 3 m/S 650 mmHg 57%
    18:00 +25°C° 0,8 mm 2 m/S 650 mmHg 64%
    19:00 +23°C° 0,8 mm 1 m/S 650 mmHg 71%
    20:00 +22°C° 0,8 mm 1 m/S 650 mmHg 78%
    21:00 +21°C° 0,4 mm 1 m/S 650 mmHg 79%
    22:00 +21°C° 0,4 mm 1 m/S 650 mmHg 81%
    23:00 +20°C° 0,4 mm 1 m/S 651 mmHg 82%
    Mehr zeigen